Home   Weather   Lódz   Past weeks

Flag for Poland Past Weather in Lódz, Poland — Yesterday and Last 2 Weeks

Now
19 °F

Fog.


Feels Like: 14 °F
Forecast: 21 / 30 °F
Wind: 3 mph from Southwest

Location: Lodz

Current Time: Jan 19, 2017 at 2:08:05 pm

Latest Report: Jan 19, 2017 at 1:00 pm


Visibility: 3 mi

Pressure: 30.72 "Hg

Humidity: 92%

Dew Point: 17 °F

Location of LódzLocation

Past Weather in Lódz — Graph

°F

Lódz Temperature Yesterday

Maximum temperature yesterday: 22 °F (at 1:00 pm)
Minimum temperature yesterday: 10 °F (at 3:00 am)
Average temperature yesterday: 17 °F

High & Low Weather Summary for the Past Weeks

 TemperatureHumidityPressure
High40 °F (Jan 13, 7:00 pm)95% (Jan 12, 6:00 am)30.79 "Hg (Jan 12, 6:00 am)
Low-9 °F (Jan 7, 7:00 am)45% (Jan 9, 2:00 pm)29.26 "Hg (Jan 4, 1:00 pm)
Average20 °F81%30.15 "Hg
* Reported Jan 4 12:00 pm — Jan 19 12:00 pm, Lódz, Weather by CustomWeather, © 2017

Note: Actual official high and low records may vary slightly from our data, if they occured in-between our weather recording intervals... More about our weather records

Advertising

Lódz Weather History for the Previous 24 Hours

Scroll right to see more
 ConditionsComfort  
Time TempWeatherWind HumidityBarometerVisibility
12:00 pm
Thu, Jan 19
19 °FFog.3 mph92%30.73 "Hg2 mi
11:00 am19 °FLow clouds.2 mph92%30.74 "Hg2 mi
10:00 am18 °FSnow flurries. Low clouds.1 mph92%30.75 "Hg2 mi
9:00 am18 °FFog.3 mph92%30.74 "Hg2 mi
8:00 am18 °FFog.1 mph92%30.73 "Hg2 mi
7:00 am18 °FFog.2 mph92%30.73 "Hg2 mi
6:00 am18 °FFog.3 mph92%30.73 "Hg2 mi
5:00 am18 °FFog.2 mph92%30.74 "Hg2 mi
4:00 am18 °FFog.2 mph92%30.76 "Hg2 mi
3:00 am18 °FFog.2 mph92%30.76 "Hg2 mi
2:00 am18 °FFog.1 mph92%30.77 "Hg2 mi
1:00 am18 °FFog.2 mph92%30.77 "Hg2 mi
12:00 am18 °FLow clouds.N/A92%30.78 "Hg1 mi
11:00 pm
Wed, Jan 18
18 °FLight snow. Low clouds.2 mph92%30.79 "Hg1 mi
10:00 pm18 °FFog.N/A92%30.79 "Hg1 mi
8:00 pm19 °FFog.N/A92%30.79 "Hg1 mi
7:00 pm20 °FFog.N/A93%30.79 "Hg1 mi
6:00 pm20 °FFog.1 mph93%30.78 "Hg1 mi
5:00 pm20 °FFog.N/A93%30.78 "Hg1 mi
4:00 pm20 °FFog.N/A92%30.78 "Hg2 mi
3:00 pm21 °FFog.N/A92%30.77 "Hg2 mi
2:00 pm21 °FFog.N/A94%30.78 "Hg2 mi
Weather by CustomWeather, © 2017

See weather overviewHow to use our weather pages